This is the latest recevied weather packets stored in our database for station/object W1GK. If no packets are shown the sender has not sent any weather packets the latest 10 day(s).
| Time | Temp. | Humidity | Pressure | Rain* | Wind** | Luminosity | Snow |
|---|---|---|---|---|---|---|---|
| 1777848599 | 30.56° C | 12% | 1006.4 hPa | 0 mm | - | 162 W/m² | - |
| 1777848000 | 31.11° C | 12% | 1006.4 hPa | 0 mm | - | 188 W/m² | - |
| 1777847400 | 30° C | 12% | 1006.6 hPa | 0 mm | - | 195 W/m² | - |
| 1777846801 | 30° C | 12% | 1006.8 hPa | 0 mm | - | 169 W/m² | - |
| 1777846200 | 30° C | 13% | 1007 hPa | 0 mm | - | 169 W/m² | - |
| 1777845599 | 30° C | 13% | 1007.2 hPa | 0 mm | - | 156 W/m² | - |
| 1777845001 | 30° C | 12% | 1007.2 hPa | 0 mm | - | 120 W/m² | - |
| 1777844400 | 30° C | 12% | 1007.5 hPa | 0 mm | - | 148 W/m² | - |
| 1777843801 | 30° C | 12% | 1007.6 hPa | 0 mm | - | 139 W/m² | - |
| 1777843202 | 30.56° C | 11% | 1007.8 hPa | 0 mm | - | 160 W/m² | - |
| 1777842601 | 31.67° C | 11% | 1007.9 hPa | 0 mm | - | 160 W/m² | - |
| 1777842002 | 32.22° C | 11% | 1008.1 hPa | 0 mm | - | 151 W/m² | - |
| 1777841402 | 32.22° C | 11% | 1008.1 hPa | 0 mm | - | 186 W/m² | - |
| 1777840801 | 31.67° C | 11% | 1008.3 hPa | 0 mm | - | 202 W/m² | - |
| 1777840200 | 32.22° C | 11% | 1008.6 hPa | 0 mm | - | 214 W/m² | - |
| 1777839600 | 31.67° C | 11% | 1008.8 hPa | 0 mm | - | 209 W/m² | - |
| 1777839000 | 32.22° C | 11% | 1008.9 hPa | 0 mm | - | 287 W/m² | - |
| 1777838401 | 32.22° C | 10% | 1009.1 hPa | 0 mm | - | 209 W/m² | - |
| 1777837798 | 32.22° C | 10% | 1009.4 hPa | 0 mm | - | 1056 W/m² | - |
| 1777837200 | 32.78° C | 10% | 1009.6 hPa | 0 mm | - | 1025 W/m² | - |
| 1777836601 | 32.22° C | 10% | 1009.8 hPa | 0 mm | - | 1018 W/m² | - |
| 1777836000 | 32.22° C | 9% | 1010 hPa | 0 mm | - | 1004 W/m² | - |
| 1777835399 | 31.67° C | 9% | 1010.2 hPa | 0 mm | - | 991 W/m² | - |
| 1777834802 | 31.67° C | 9% | 1010.4 hPa | 0 mm | - | 990 W/m² | - |
| 1777834200 | 31.67° C | 9% | 1010.7 hPa | 0 mm | - | 951 W/m² | - |
* Rain latest hour (hover to see other rain measurements)
** Current wind speed in m/s (hover to see current wind gust speed)